Location: Unspecified
(50.3020°N, 0.0000°E)
Time: 13:53:02
(UTC+00:00)

Transit 2A - Visible Passes

Search period start: 04 April 2026 00:00
Search period end: 14 April 2026 00:00
Orbit: 591 x 953 km, 66.7° (Epoch: 29 March)

Date Brightness Start Highest point End Pass type
(mag) Time Alt. Az. Time Alt. Az. Time Alt. Az.
4 Apr 7.0 01:30:35 46° ESE 01:30:35 46° ESE 01:35:55 10° NE visible
4 Apr 6.9 03:10:54 33° W 03:13:16 48° NW 03:19:07 10° NNE visible
4 Apr 8.1 04:53:18 10° WNW 04:57:46 20° NNW 05:02:04 10° NNE visible
5 Apr 7.6 00:55:04 31° E 00:55:04 31° E 00:59:17 10° NE visible
5 Apr 6.6 02:35:23 50° W 02:36:43 62° NW 02:42:44 10° NNE visible
5 Apr 7.9 04:16:05 10° WNW 04:20:57 23° NNW 04:25:37 10° NNE visible
6 Apr 8.1 00:19:30 21° E 00:19:30 21° E 00:22:30 10° ENE visible
6 Apr 6.3 01:59:49 76° W 02:00:13 81° NW 02:06:20 10° NE visible
6 Apr 7.8 03:40:08 15° W 03:44:11 27° NNW 03:49:12 10° NNE visible
6 Apr 8.5 23:43:55 14° ENE 23:43:55 14° ENE 23:45:25 10° ENE visible
7 Apr 6.4 01:24:14 74° E 01:24:14 74° E 01:29:54 10° NE visible
7 Apr 7.5 03:04:33 22° W 03:07:28 33° NW 03:12:49 10° NNE visible
7 Apr 8.4 04:48:31 10° NW 04:52:22 17° NNW 04:56:03 10° NNE visible
8 Apr 6.9 00:48:36 50° E 00:48:36 50° E 00:53:24 10° NE visible
8 Apr 7.2 02:28:54 33° W 02:30:49 41° NW 02:36:28 10° NNE visible
8 Apr 8.3 04:11:19 10° WNW 04:15:29 18° NNW 04:19:28 10° NNE visible
9 Apr 7.5 00:12:55 34° ENE 00:12:55 34° ENE 00:16:50 10° NE visible
9 Apr 6.8 01:53:14 47° WNW 01:54:14 52° NW 02:00:05 10° NNE visible
9 Apr 8.2 03:34:05 10° WNW 03:38:38 21° NNW 03:42:59 10° NNE visible
9 Apr 7.9 23:37:13 24° ENE 23:37:13 24° ENE 23:40:10 10° NE visible
10 Apr 6.5 01:17:32 67° WNW 01:17:42 67° NW 01:23:42 10° NE visible
10 Apr 8.0 02:57:49 13° WNW 03:01:50 24° NNW 03:06:33 10° NNE visible
10 Apr 8.6 04:43:33 10° NW 04:47:01 16° N 04:50:20 10° NE visible
10 Apr 8.3 23:01:28 17° ENE 23:01:28 17° ENE 23:03:17 10° ENE visible
11 Apr 6.4 00:41:46 76° NNE 00:41:46 76° NNE 00:47:17 10° NE visible
11 Apr 7.8 02:22:05 20° WNW 02:25:04 29° NNW 02:30:09 10° NNE visible
11 Apr 8.5 04:06:29 10° NW 04:10:05 16° N 04:13:32 10° NNE visible
11 Apr 8.6 22:25:40 11° ENE 22:25:40 11° ENE 22:26:02 10° ENE visible
12 Apr 6.7 00:05:58 57° ENE 00:05:58 57° ENE 00:10:50 10° NE visible
12 Apr 7.5 01:46:16 28° WNW 01:48:22 35° NW 01:53:47 10° NNE visible
12 Apr 8.5 03:29:18 10° NW 03:33:11 17° NNW 03:36:54 10° NNE visible
12 Apr 7.1 23:30:07 41° ENE 23:30:07 41° ENE 23:34:19 10° NE visible
13 Apr 7.2 01:10:25 39° WNW 01:11:44 44° NW 01:17:24 10° NNE visible
13 Apr 8.4 02:52:04 10° WNW 02:56:18 19° NNW 03:00:21 10° NNE visible
13 Apr 8.6 04:38:10 10° NNW 04:41:39 16° N 04:44:58 10° NE visible
13 Apr 7.5 22:54:13 30° ENE 22:54:13 30° ENE 22:57:43 10° NE visible
